Address 0x9fc35ff6ed7a3f60af762cdabd9d4945150f2f5b 2

 
Txn Hash Method
Block
From
To
Value [Txn Fee]
0x11929380977c4472c71f51e468fd09ded3c9fc31c34d2982cc45921f9d63b3c2Claim Reward109107792021-09-14 15:45:4610 days 1 hr ago0x9fc35ff6ed7a3f60af762cdabd9d4945150f2f5bOUT 0xf70c08a428f300c7f3e3f09217211d21f7a504100 BNB0.000894865
0x9f862f013b5e73fa4c57573df44e8a917412ae05f1321b53f6909c7202807906Battle109107732021-09-14 15:45:2810 days 1 hr ago0x9fc35ff6ed7a3f60af762cdabd9d4945150f2f5bOUT 0xf70c08a428f300c7f3e3f09217211d21f7a504100 BNB0.00087817
0xdca210c1f382cf3c869ed3ca7a9fb220cc1a07b8054685cc6823de0b75f499bfTransfer106939272021-09-07 1:23:4417 days 16 hrs ago0x9fc35ff6ed7a3f60af762cdabd9d4945150f2f5bOUT Binance: BUSD Stablecoin0 BNB0.000105695
0xf69c9ce9c213b2458097389795c2a4400bb43f23510e038b891b579afcc0c15cSwap Exact Token...106899112021-09-06 22:00:3817 days 19 hrs ago0x9fc35ff6ed7a3f60af762cdabd9d4945150f2f5bOUT PancakeSwap: Router v20 BNB0.00134018
0xe7e954d38be4c33e8eba1c2288a184b4405914d6d087d8ed4804670aee3c4b95Swap Exact Token...106898992021-09-06 21:59:5817 days 19 hrs ago0x9fc35ff6ed7a3f60af762cdabd9d4945150f2f5bOUT PancakeSwap: Router v20 BNB0.0013199
0x72a2d2c1b6da7bdb687504187bb2c7ae6eada1bd843140fac9cf6606d6158f7dApprove106898902021-09-06 21:59:3117 days 19 hrs ago0x9fc35ff6ed7a3f60af762cdabd9d4945150f2f5bOUT CryptoZoon: YAG Token0 BNB0.00023588
0x89b8f22eacf974a986cc71de15f5ad264d4ef44bce4630e371d9a1da9a15bc78Claim Reward106898102021-09-06 21:55:3117 days 19 hrs ago0x9fc35ff6ed7a3f60af762cdabd9d4945150f2f5bOUT 0xf70c08a428f300c7f3e3f09217211d21f7a504100 BNB0.001024655
0x4f1deafb02783e8710dc54de5becec5b670d67489e51784f21c53d78a63bad45Battle106898012021-09-06 21:55:0417 days 19 hrs ago0x9fc35ff6ed7a3f60af762cdabd9d4945150f2f5bOUT 0xf70c08a428f300c7f3e3f09217211d21f7a504100 BNB0.00098509
0x7579b34cce2c3b1dc8ca86fb0ce3390f7d4e548d7edf0325b430263cf40c30ddBattle106897912021-09-06 21:54:3417 days 19 hrs ago0x9fc35ff6ed7a3f60af762cdabd9d4945150f2f5bOUT 0xf70c08a428f300c7f3e3f09217211d21f7a504100 BNB0.00087433
0x11fa1b976d21778de3c79615d187c73ad9afc6b0652631f7fe150363f9ed0334Battle106897872021-09-06 21:54:2217 days 19 hrs ago0x9fc35ff6ed7a3f60af762cdabd9d4945150f2f5bOUT 0xf70c08a428f300c7f3e3f09217211d21f7a504100 BNB0.00098509
0x7c7fdebc4ce6189a95489c9b978550b1ad944eb5084058e84abe700ffb8853cfBattle106897812021-09-06 21:54:0417 days 19 hrs ago0x9fc35ff6ed7a3f60af762cdabd9d4945150f2f5bOUT 0xf70c08a428f300c7f3e3f09217211d21f7a504100 BNB0.000856905
0xf0c6cf623f231e5abd4ff09e0877c40d36288d40d58ba8d5b3a269f4070bb2c4Battle106897752021-09-06 21:53:4617 days 19 hrs ago0x9fc35ff6ed7a3f60af762cdabd9d4945150f2f5bOUT 0xf70c08a428f300c7f3e3f09217211d21f7a504100 BNB0.00094679
0x729a4e4ef5ee0fbd732199091548b520cde2f32f4f47ccf3fe03a6614dd988bcBattle106897662021-09-06 21:53:1917 days 19 hrs ago0x9fc35ff6ed7a3f60af762cdabd9d4945150f2f5bOUT 0xf70c08a428f300c7f3e3f09217211d21f7a504100 BNB0.00098544
0xe191218a8b419a996c87a6f84ddd763182005b66f1eca1628f2c8ce72f84da01Battle106897542021-09-06 21:52:4317 days 19 hrs ago0x9fc35ff6ed7a3f60af762cdabd9d4945150f2f5bOUT 0xf70c08a428f300c7f3e3f09217211d21f7a504100 BNB0.000836185
0x950b344c148a3cd9b6f4eb34fce0c028a53ccfe6b92e5531b2e633f78b7a538cBattle106897482021-09-06 21:52:2517 days 19 hrs ago0x9fc35ff6ed7a3f60af762cdabd9d4945150f2f5bOUT 0xf70c08a428f300c7f3e3f09217211d21f7a504100 BNB0.00095303
0x5d19101a50b90b9ddd9d8bddecfd13aa37061e3efb09d669a3abcd41fc701bc4Battle106897422021-09-06 21:52:0717 days 19 hrs ago0x9fc35ff6ed7a3f60af762cdabd9d4945150f2f5bOUT 0xf70c08a428f300c7f3e3f09217211d21f7a504100 BNB0.000946665
0x50f49801f5a6085c4038b0b98fa8177177776f7ca6e4d18ae0d88d2d181c1233Battle106897342021-09-06 21:51:4317 days 19 hrs ago0x9fc35ff6ed7a3f60af762cdabd9d4945150f2f5bOUT 0xf70c08a428f300c7f3e3f09217211d21f7a504100 BNB0.00089533
0x66545a0a8e0a52273d19a04017f16f6e4e6c3462974cf7aa96d4beb2a0b2a55fBattle106897282021-09-06 21:51:2517 days 19 hrs ago0x9fc35ff6ed7a3f60af762cdabd9d4945150f2f5bOUT 0xf70c08a428f300c7f3e3f09217211d21f7a504100 BNB0.000946665
0x11973bca87e64b2e9b9e54853930d988a68f11fcfd44758576c62f2239b57cdbBattle106897202021-09-06 21:51:0117 days 19 hrs ago0x9fc35ff6ed7a3f60af762cdabd9d4945150f2f5bOUT 0xf70c08a428f300c7f3e3f09217211d21f7a504100 BNB0.00089533
0xcfa07396cbf5e72f7f487a94e404c6a6c81fbc7eafa0e7129c8c70075b649732Battle106537002021-09-05 15:41:4419 days 1 hr ago0x9fc35ff6ed7a3f60af762cdabd9d4945150f2f5bOUT 0xf70c08a428f300c7f3e3f09217211d21f7a504100 BNB0.00095217
0x7bf250d14bb3d24346b78fd49ef9ae9664c609005059e9abc416892693b7d516Battle106536922021-09-05 15:41:2019 days 1 hr ago0x9fc35ff6ed7a3f60af762cdabd9d4945150f2f5bOUT 0xf70c08a428f300c7f3e3f09217211d21f7a504100 BNB0.00095217
0xb76af7cccbfce39c976d090a45547fc0d81f128ea2205d67efb0c98ce0f23902Battle106536842021-09-05 15:40:5619 days 1 hr ago0x9fc35ff6ed7a3f60af762cdabd9d4945150f2f5bOUT 0xf70c08a428f300c7f3e3f09217211d21f7a504100 BNB0.000931295
0x55345031f302c2459be7c7e242205cb2f44e051ccce5c934a09d3512cb0e6422Battle106536782021-09-05 15:40:3819 days 1 hr ago0x9fc35ff6ed7a3f60af762cdabd9d4945150f2f5bOUT 0xf70c08a428f300c7f3e3f09217211d21f7a504100 BNB0.000952295
0x124ef239f72d1cf39aac41b96c43b23020a80ed7e38757c09facc22b609fda3bBattle106536682021-09-05 15:40:0819 days 1 hr ago0x9fc35ff6ed7a3f60af762cdabd9d4945150f2f5bOUT 0xf70c08a428f300c7f3e3f09217211d21f7a504100 BNB0.00098631
0x4afed356b17e89f23f99e8e5641d0deadda8aabffa4754c3ab66dc4f5d668b6dBattle106536522021-09-05 15:39:2019 days 1 hr ago0x9fc35ff6ed7a3f60af762cdabd9d4945150f2f5bOUT 0xf70c08a428f300c7f3e3f09217211d21f7a504100 BNB0.00095217
[ Download CSV Export 
Latest 2 internal transactions
Parent Txn Hash Block From To Value
0x427e5c3695e7729e72891416a4508fbb0834d0731f1de0f26d311e28046e47e9104406072021-08-29 4:12:3026 days 13 hrs ago PancakeSwap: Router v20x9fc35ff6ed7a3f60af762cdabd9d4945150f2f5b0.352837396014520587 BNB
0x6f12e8079d0932058ee1226b1a158450cc16ff6ba8fd4b6fde3a21bffaca6b5d102543232021-08-22 15:17:1033 days 2 hrs ago 0x08161e56505f0e53880fb1fb8b3c5facc784a6c20x9fc35ff6ed7a3f60af762cdabd9d4945150f2f5b0.01950825 BNB
[ Download CSV Export 
Loading

Contract Name:
0 BNB

Compiler Version
0

Optimization Enabled:
0 BNB

Other Settings:
-NA-
Block Transaction Gas Used Reward
Age Block Fee Address BC Fee Address Voting Power Jailed Incoming
Block Uncle Number Difficulty Gas Used Reward
Loading
Loading
Make sure to use the "Vote Down" button for any spammy posts, and the "Vote Up" for interesting conversations.